Weather History for KCLM - October, 2012

Change the Weather History Date:

Tuesday, October 23, 2012

  Actual Average Record
Temperature  
Mean Temperature 42 °F -  
Max Temperature 48 °F 56 °F 69 °F (1992)
Min Temperature 37 °F 41 °F 31 °F (1976)
Degree Days  
Heating Degree Days 22    
Moisture  
Dew Point 39 °F    
Average Humidity 85    
Maximum Humidity 97    
Minimum Humidity 71    
Precipitation  
Precipitation 0.00 in - - ()
Sea Level Pressure  
Sea Level Pressure 29.75 in    
Wind  
Wind Speed 5 mph (WSW)    
Max Wind Speed 8 mph    
Max Gust Speed -    
Visibility 10 miles    
Events Rain    
Averages and records for this station are not official NWS values.
T = Trace of Precipitation, MM = Missing Value Source: NWS Daily Summary

Daily Weather History Graph

Daily Weather History Graph

Search for Another Location

Airport or City:

Trip Planner

Search our weather history database for the weather conditions in past years. The results will help you decide how hot, cold, wet, or windy it might be!

Date:

Astronomy

Oct. 23, 2012 Rise Set
Actual Time 7:46 AM PDT 6:09 PM PDT
Civil Twilight 7:14 AM PDT 6:41 PM PDT
Nautical Twilight 6:38 AM PDT 7:17 PM PDT
Astronomical Twilight 6:02 AM PDT 7:53 PM PDT
Moon 3:19 PM PDT (10/23) 1:18 AM PDT (10/23)
Length of Visible Light 11h 26m
Length of Day
10h 23m
Waxing Gibbous, 67% of the Moon is Illuminated
Oct 23
Waxing Gibbous
Oct 29
Full
Nov 6
Last Quarter
Nov 13
New
Nov 20
First Quarter

Hourly Weather History & Observations

Time (PDT) Temp. Windchill Dew Point Humidity Pressure Visibility Wind Dir Wind Speed Gust Speed Precip Events Conditions
12:53 AM 42.1 °F 37.7 °F 37.9 °F 85% 29.64 in 10.0 mi WSW 6.9 mph - N/A   Overcast
1:34 AM 42.1 °F 37.1 °F 37.9 °F 85% 29.64 in 10.0 mi WSW 8.1 mph - N/A   Overcast
1:53 AM 43.0 °F 38.8 °F 39.0 °F 86% 29.65 in 10.0 mi West 6.9 mph - N/A   Overcast
2:21 AM 43.0 °F 39.5 °F 39.0 °F 86% 29.66 in 10.0 mi WSW 5.8 mph - N/A   Overcast
2:53 AM 43.0 °F 38.2 °F 37.9 °F 82% 29.67 in 10.0 mi WSW 8.1 mph - N/A   Overcast
3:20 AM 43.0 °F 39.5 °F 39.0 °F 86% 29.67 in 10.0 mi West 5.8 mph - 0.00 in Rain Light Rain
3:53 AM 41.0 °F 39.0 °F 37.9 °F 89% 29.68 in 10.0 mi SW 3.5 mph - 0.00 in   Mostly Cloudy
4:22 AM 39.9 °F 37.8 °F 37.0 °F 89% 29.68 in 10.0 mi WSW 3.5 mph - N/A   Mostly Cloudy
4:49 AM 39.2 °F 35.0 °F 37.4 °F 93% 29.69 in 10.0 mi WSW 5.8 mph - N/A   Mostly Cloudy
4:53 AM 39.0 °F 34.8 °F 37.0 °F 93% 29.69 in 10.0 mi SW 5.8 mph - N/A   Scattered Clouds
5:08 AM 39.9 °F 35.1 °F 37.0 °F 89% 29.69 in 10.0 mi SW 6.9 mph - N/A   Mostly Cloudy
5:17 AM 39.2 °F - 35.6 °F 87% 29.69 in 10.0 mi Calm Calm - N/A   Mostly Cloudy
5:46 AM 37.9 °F 34.4 °F 37.0 °F 97% 29.70 in 10.0 mi SW 4.6 mph - N/A   Scattered Clouds
5:53 AM 37.9 °F - 36.0 °F 93% 29.71 in 10.0 mi Calm Calm - N/A   Partly Cloudy
6:53 AM 37.0 °F - 35.1 °F 93% 29.73 in 10.0 mi Calm Calm - N/A   Mostly Cloudy
7:09 AM 37.9 °F 34.4 °F 36.0 °F 93% 29.73 in 10.0 mi SW 4.6 mph - N/A   Overcast
7:53 AM 39.2 °F 35.9 °F 37.4 °F 93% 29.74 in 10.0 mi SW 4.6 mph - N/A   Overcast
8:04 AM 39.0 °F - 37.0 °F 93% 29.74 in 10.0 mi Calm Calm - N/A   Overcast
8:49 AM 42.8 °F - 39.2 °F 87% 29.75 in 10.0 mi Calm Calm - N/A   Overcast
8:53 AM 42.1 °F - 39.9 °F 92% 29.76 in 10.0 mi Calm Calm - N/A   Overcast
9:29 AM 45.0 °F - 42.1 °F 90% 29.76 in 10.0 mi Calm Calm - N/A   Mostly Cloudy
9:53 AM 46.4 °F - 42.8 °F 87% 29.76 in 10.0 mi Calm Calm - N/A   Mostly Cloudy
10:34 AM 48.0 °F - 39.9 °F 74% 29.77 in 10.0 mi East 4.6 mph - N/A   Overcast
10:53 AM 46.4 °F 42.4 °F 39.2 °F 76% 29.77 in 10.0 mi East 8.1 mph - N/A   Overcast
11:14 AM 46.9 °F - 39.9 °F 77% 29.77 in 10.0 mi East 6.9 mph - N/A   Overcast
11:53 AM 46.9 °F - 39.9 °F 77% 29.78 in 10.0 mi East 8.1 mph - N/A   Overcast
12:53 PM 46.9 °F - 41.0 °F 80% 29.80 in 10.0 mi NE 4.6 mph - N/A   Overcast
1:28 PM 48.2 °F - 41.0 °F 76% 29.79 in 10.0 mi Variable 3.5 mph - N/A   Mostly Cloudy
1:53 PM 46.9 °F - 39.0 °F 74% 29.80 in 10.0 mi NNW 4.6 mph - N/A   Scattered Clouds
2:53 PM 48.0 °F - 39.9 °F 74% 29.80 in 10.0 mi Variable 5.8 mph - N/A   Mostly Cloudy
3:01 PM 48.0 °F - 39.9 °F 74% 29.80 in 10.0 mi Variable 4.6 mph - N/A   Mostly Cloudy
3:53 PM 48.0 °F - 39.0 °F 71% 29.81 in 10.0 mi West 5.8 mph - N/A   Mostly Cloudy
4:53 PM 48.0 °F - 39.9 °F 74% 29.81 in 10.0 mi West 8.1 mph - N/A   Mostly Cloudy
5:53 PM 46.0 °F 43.1 °F 39.0 °F 76% 29.82 in 10.0 mi SW 5.8 mph - N/A   Clear
6:53 PM 42.1 °F 38.4 °F 39.0 °F 89% 29.82 in 10.0 mi SW 5.8 mph - N/A   Clear
7:53 PM 42.1 °F - 39.0 °F 89% 29.83 in 10.0 mi Calm Calm - N/A   Scattered Clouds
8:53 PM 42.1 °F 40.2 °F 39.0 °F 89% 29.83 in 10.0 mi SW 3.5 mph - N/A   Mostly Cloudy
9:53 PM 42.1 °F - 39.0 °F 89% 29.83 in 10.0 mi Calm Calm - N/A   Mostly Cloudy
10:53 PM 42.1 °F 39.2 °F 39.0 °F 89% 29.84 in 10.0 mi SW 4.6 mph - N/A   Overcast
11:06 PM 42.1 °F - 39.0 °F 89% 29.83 in 10.0 mi Calm Calm - N/A   Overcast
11:18 PM 42.1 °F - 39.0 °F 89% 29.83 in 10.0 mi Calm Calm - N/A   Overcast
11:39 PM 43.0 °F 40.3 °F 39.0 °F 86% 29.83 in 10.0 mi SW 4.6 mph - N/A   Mostly Cloudy
11:53 PM 42.1 °F - 39.0 °F 89% 29.84 in 10.0 mi Calm Calm - N/A   Mostly Cloudy